Regional Weather Roundup
Issued by NWS State College, PA

Home | Current Version | Previous Version | Text Only | Print | Product List | Glossary Off
Versions: 1 2 3 4 5 6 7 8 9 10 11 12 13 14 15 16 17 18 19 20 21 22 23 24 25 26 27 28 29 30 31 32 33 34 35 36 37 38 39 40 41 42 43 44 45 46 47 48 49 50

000
ASUS41 KCTP 060810
RWRCTP

REGIONAL WEATHER ROUNDUP
NATIONAL WEATHER SERVICE STATE COLLEGE PA
300 AM EST SAT FEB 06 2016

Note: "fair" indicates few or no clouds below 12,000 feet with no
significant weather and/or obstructions to visibility.

* = STATION THAT DOES NOT REPORT PRECIPITATION /E.G. RAIN...SNOW...ETC/
    THUNDER OR FOG.

PAZ002>004-007>009-013>016-020>023-029>032-060900-
WESTERN PENNSYLVANIA

CITY           SKY/WX    TMP DP  RH WIND       PRES   REMARKS
ERIE           CLOUDY    33  19  56 S12       30.25S
MEADVILLE      CLOUDY    29  18  63 S5        30.23F
FRANKLIN*      CLOUDY    25  18  74 S7        30.27F
NEW CASTLE     CLOUDY    30  20  66 S6        30.29S
BEAVER COUNTY  NOT AVBL
BUTLER*        CLOUDY    27  18  69 S6        30.32F
PITTSBURGH INT CLOUDY    28  17  63 S5        30.29S
PITTSBURGH     CLOUDY    28  17  63 S9        30.29F
INDIANA*       CLOUDY    23  19  86 CALM      30.33F
LATROBE        CLOUDY    21  18  86 CALM      30.33S
WASHINGTON CO* PTCLDY    23  18  80 CALM      30.31S
$$

PAZ004>006-010>012-017>019-024>028-033>037-041-042-045-046-049>053-060900-
CENTRAL PENNSYLVANIA

CITY           SKY/WX    TMP DP  RH WIND       PRES   REMARKS
BRADFORD       CLOUDY    22  14  71 S5        30.22F
DUBOIS         CLOUDY    23  15  71 S3        30.25F
CLEARFIELD     CLOUDY    19  15  84 N5        30.29F WCI  12
JOHNSTOWN      CLOUDY    22  12  65 S7        30.25S WCI  13
ALTOONA        CLOUDY    24  15  68 CALM      30.31S
STATE COLLEGE  CLOUDY    24  15  69 W3        30.31F
WILLIAMSPORT   CLEAR     24  17  74 CALM      30.36R
SELINSGROVE    CLEAR     23  19  85 CALM      30.37S
FT INDIANTOWN  CLOUDY    25  18  74 VRB1      30.36R
CAPITAL CITY   CLOUDY    29  16  58 W6        30.37F
HARRISBURG     CLOUDY    25  16  68 CALM      30.37S
YORK           CLOUDY    19  16  88 CALM      30.37S
$$

PAZ038>040-043-044-047-048-054-055-060>062-067>071-060900-
EASTERN PENNSYLVANIA

CITY           SKY/WX    TMP DP  RH WIND       PRES   REMARKS
SCRANTON       CLEAR     24  17  74 CALM      30.31S
MOUNT POCONO   CLEAR     21  15  78 W8        30.24S WCI  11
ALLENTOWN      PTCLDY    24  17  74 SW3       30.36R
QUAKERTOWN*    CLOUDY    19  18  93 CALM      30.36S
READING        CLOUDY    24  18  77 CALM      30.36S
LANCASTER      PTCLDY    26  17  68 SW3       30.37S
COATESVILLE    CLOUDY    27  19  74 W3        30.37S
POTTSTOWN      PTCLDY    22  19  89 CALM      30.38S
BLUE BELL        N/A     23  21  93 CALM      30.36F
DOYLESTOWN     CLOUDY    22  18  85 CALM      30.35S
WILLOW GROVE   NOT AVBL
NORTH PHILA    PTCLDY    27  21  78 CALM      30.39S
PHILADELPHIA   CLOUDY    29  20  69 W5        30.39S
$$



USA.gov is the U.S. government's official web portal to all federal, state and local government web resources and services.